Flag for France Weather past 2 weeks in Rouen, France

Now
79 °F

Thundershowers. Partly sunny.


Feels Like: 80 °F
Forecast: 54 / 66 °F
Wind: 9 mph from Southwest

Location: Rouen Airport

Current Time: Sep 20, 2014 at 3:02:33 PM

Latest Report: Sep 20, 2014 at 2:30 PM


Visibility: N/A

Pressure: 29.95 "Hg

Humidity: 58%

Dew point: 63 °F

Location of RouenLocation

Historic Weather in Rouen — Graph

°F

Rouen temperature yesterday

Maximum temperature yesterday: 79 °F (at 4:00 PM)
Minimum temperature yesterday: 57 °F (at 4:00 AM)
Average temperature yesterday: 67 °F

Past Weeks' High & Low Weather Summary

 TemperatureHumidityPressure
High79 °F (Sep 18, 2:00 PM)100% (Sep 6, 9:30 AM)30.24 "Hg (Sep 6, 9:30 AM)
Low50 °F (Sep 11, 4:30 AM)40% (Sep 9, 3:30 PM)29.74 "Hg (Sep 17, 5:00 PM)
Average63 °F77%30.00 "Hg
* Reported Sep 5 2:00 PM — Sep 20 2:00 PM, Rouen, Weather by CustomWeather, © 2014

Note: Actual official high and low records may vary slightly from our data, if they occured in-between our weather recording intervals... More about our weather records

Advertising

Rouen weather history for previous 24 hours

 ConditionsComfort  
Time TempWeatherWind HumidityBarometerVisibility
2:00 PM
Sep 20
77 °FThundershowers. Scattered clouds.6 mph65%29.98 "HgN/A
1:30 PM77 °FPassing clouds.7 mph65%29.98 "HgN/A
1:00 PM77 °FClear.6 mph65%29.98 "HgN/A
12:30 PM75 °FClear.5 mph69%29.98 "HgN/A
12:00 PM72 °FClear.6 mph73%29.98 "HgN/A
11:30 AM73 °FClear.3 mph74%29.98 "HgN/A
11:00 AM72 °FClear.6 mph78%29.98 "HgN/A
10:30 AM68 °FClear.3 mph83%29.95 "HgN/A
10:00 AM64 °FClear.3 mph88%29.95 "HgN/A
9:30 AM63 °FClear.5 mph94%29.95 "Hg4 mi
9:00 AM61 °FFog.3 mph100%29.95 "Hg1 mi
8:30 AM59 °FFog.6 mph100%29.95 "Hg2 mi
8:00 AM59 °FFog.5 mph100%29.95 "Hg2 mi
7:30 AM59 °FFog.5 mph100%29.95 "Hg1 mi
7:00 AM59 °FFog.3 mph94%29.95 "Hg2 mi
6:30 AM59 °FFog.5 mph94%29.95 "Hg3 mi
6:00 AM59 °FFog.5 mph94%29.92 "Hg3 mi
5:30 AM59 °FFog.3 mph94%29.92 "Hg1 mi
5:00 AM59 °FClear.2 mph94%29.92 "Hg5 mi
4:30 AM59 °FClear.3 mph94%29.92 "HgN/A
4:00 AM59 °FClear.2 mph94%29.92 "HgN/A
3:00 AM61 °FClear.2 mph94%29.92 "HgN/A
2:00 AM61 °FClear.2 mph94%29.92 "HgN/A
1:30 AM63 °FClear.1 mph88%29.92 "HgN/A
1:00 AM63 °FMild.No wind94%29.92 "HgN/A
12:30 AM64 °FClear.No wind83%29.92 "HgN/A
12:00 AM64 °FClear.No wind88%29.92 "HgN/A
11:30 PM
Sep 19
64 °FClear.1 mph88%29.92 "HgN/A
10:30 PM66 °FClear.2 mph83%29.92 "HgN/A
10:00 PM68 °FClear.3 mph78%29.89 "HgN/A
9:30 PM68 °FClear.6 mph83%29.89 "HgN/A
9:00 PM68 °FClear.3 mph83%29.89 "HgN/A
8:30 PM70 °FClear.6 mph73%29.89 "HgN/A
8:00 PM70 °FClear.3 mph78%29.86 "HgN/A
7:30 PM72 °FClear.2 mph78%29.86 "HgN/A
7:00 PM73 °FClear.2 mph65%29.86 "HgN/A
6:30 PM75 °FClear.2 mph65%29.86 "HgN/A
6:00 PM77 °FClear.5 mph57%29.86 "HgN/A
5:30 PM79 °FClear.7 mph54%29.86 "HgN/A
5:00 PM79 °FClear.8 mph51%29.86 "HgN/A
4:30 PM79 °FClear.5 mph54%29.86 "HgN/A
4:00 PM79 °FClear.7 mph58%29.86 "HgN/A
3:30 PM77 °FWarm.8 mph57%29.86 "HgN/A
3:00 PM77 °FClear.6 mph61%29.86 "HgN/A
Weather by CustomWeather, © 2014

See weather overviewHow to use our weather pages